Hourly Data Report for July 28, 2021

KUGLUKTUK A
NUNAVUT
Current Station Operator: NAVCAN

67°49'00.000" N
115°08'38.000" W
22.60 m
2300903
71938
YCO

Download Data

Hourly Data (July 2021)
Hourly Data Report for July 28, 2021
TIME
LST
Temp Definition
°C
Dew Point Definition
°C
Rel Hum Definition
%
Precip. Amount Definition
mm

Wind Dir Definition
10's deg

Wind Spd Definition
km/h
Visibility Definition
km
Stn Press Definition
kPa
Hmdx Definition


Wind Chill Definition


Weather Definition


00:00 6.5 3.4 81   12 8 24.1 100.86     LegendNANA
01:00 5.4 3.8 89   12 9 24.1 100.85     LegendNANA
02:00 5.7 3.4 85   12 9 24.1 100.86     Mostly Cloudy
03:00 5.2 3.7 90   11 13 24.1 100.84     LegendNANA
04:00 6.2 4.2 86   11 14 24.1 100.82     LegendNANA
05:00 6.5 4.5 87   14 8 24.1 100.82     Mostly Cloudy
06:00 7.5 4.7 82   11 3 24.1 100.79     LegendNANA
07:00 8.3 5.1 80   14 3 19.3 100.76     Rain
08:00 9.0 6.2 83   9 6 19.3 100.73     Rain
09:00 9.7 7.4 85   11 9 19.3 100.70     Rain
10:00 11.3 8.3 82   17 10 24.1 100.66     Rain
11:00 11.7 8.4 80   18 11 24.1 100.63     Rain
12:00 11.9 8.7 80   13 9 24.1 100.61     Rain
13:00 12.8 8.8 77   19 14 24.1 100.58     Rain
14:00 12.9 9.3 79   19 10 19.3 100.55     Rain
15:00 12.5 10.9 89   19 8 19.3 100.53     Rain
16:00 11.6 10.6 93   8 12 19.3 100.52     Rain
17:00 10.5 9.7 95   8 16 16.1 100.52     Rain
18:00 10.4 9.6 95   8 14 24.1 100.53     LegendNANA
19:00 10.1 9.1 93   7 15 16.1 100.53     LegendNANA
20:00 9.1 8.1 93   3 15 16.1 100.58     Cloudy
21:00 8.0 7.0 93   1 15 16.1 100.63     LegendNANA
22:00 7.6 6.4 92   36 16 16.1 100.68     Rain
23:00 6.9 5.4 90   1 17 16.1 100.73     Cloudy

Notes on Data Quality.

Legend

  • E = Estimated
  • M = Missing
  • NA = Not Available*
  • [empty] = Indicates an unobserved value
Date modified: